Farmersville Station, New York
Current Conditions -  °F | °C
As of 2:55 AM on Saturday 20 Dec 2014 (Local Time) from KOLE Reporting Station
Overcast Overcast  
Wind Chill: 21°   Ceiling: 600
Heat Index: 21°   Visibility: 10mi
Dew Point: 21°   Wind: 0mph
Humidity: 100%   Direction: NA
Pressure: 30.14"   Gusts: NA
Location:  42.43°N, 78.36°W
Report Text: KOLE 200755Z AUTO 00000KT 10SM OVC006 M06/M06 A3014 RMK AO2
Loading
Personal Weather Stations






























Interactive Weather Map New forecast layout! Learn more

10-Day Weather Forecast

Advertisements
Track Severe Weather on mobile